Morganton, NC

11:48 PM EST on November 19, 2017 (GMT -0500)
Morganton-Lenoir

Weather History for KMRN - November, 2013

Change the Weather History Date:

Friday, November 29, 2013

  Actual Average (KHKY) Record (KHKY)
Temperature  
Mean Temperature 36 °F -  
Max Temperature 54 °F 54 °F 72 °F (1998)
Min Temperature 19 °F 34 °F 15 °F (1955)
Degree Days  
Heating Degree Days 28    
Moisture  
Dew Point 23 °F    
Average Humidity 68    
Maximum Humidity 96    
Minimum Humidity 26    
Precipitation  
Precipitation 0.00 in - - ()
Sea Level Pressure  
Sea Level Pressure 30.54 in    
Wind  
Wind Speed 2 mph (ENE)    
Max Wind Speed 7 mph    
Max Gust Speed -    
Visibility 10 miles    
Events      
Averages and records for this station are not official NWS values.
T = Trace of Precipitation, MM = Missing Value Source: NWS Daily Summary

Daily Weather History Graph

Daily Weather History Graph

Search for Another Location

Airport or City:

Trip Planner

Search our weather history database for the weather conditions in past years. The results will help you decide how hot, cold, wet, or windy it might be!

Date:

Astronomy

Nov. 29, 2013 Rise Set
Actual Time 7:16 AM EST 5:13 PM EST
Civil Twilight 6:48 AM EST 5:41 PM EST
Nautical Twilight 6:16 AM EST 6:12 PM EST
Astronomical Twilight 5:46 AM EST 6:43 PM EST
Moon 3:27 AM EST (11/29) 2:51 PM EST (11/29)
Length of Visible Light 10h 52m
Length of Day
9h 56m
Waning Crescent, 14% of the Moon is Illuminated
Nov 29
Waning Crescent
Dec 2
New
Dec 9
First Quarter
Dec 17
Full
Dec 25
Last Quarter

Hourly Weather History & Observations

Time (EST) Temp. Windchill Dew Point Humidity Pressure Visibility Wind Dir Wind Speed Gust Speed Precip Events Conditions
12:15 AM 24.3 °F - 22.8 °F 94% 30.49 in 10.0 mi Calm Calm - N/A   Clear
12:35 AM 24.6 °F - 22.5 °F 91% 30.48 in 10.0 mi Calm Calm - N/A   Clear
12:55 AM 23.9 °F 19.5 °F 21.7 °F 91% 30.48 in 10.0 mi NNW 3.5 mph - N/A   Clear
1:15 AM 24.8 °F - 22.6 °F 91% 30.48 in 10.0 mi Calm Calm - N/A   Clear
1:35 AM 24.6 °F - 22.6 °F 92% 30.48 in 10.0 mi Calm Calm - N/A   Clear
1:55 AM 24.8 °F - 22.8 °F 92% 30.48 in 10.0 mi Calm Calm - N/A   Clear
2:15 AM 25.5 °F - 23.4 °F 92% 30.48 in 10.0 mi Calm Calm - N/A   Clear
2:35 AM 23.5 °F - 21.7 °F 93% 30.49 in 10.0 mi Calm Calm - N/A   Clear
2:55 AM 23.5 °F 19.1 °F 22.1 °F 94% 30.49 in 10.0 mi NNW 3.5 mph - N/A   Clear
3:15 AM 24.1 °F - 22.3 °F 93% 30.49 in 10.0 mi Calm Calm - N/A   Clear
3:35 AM 23.0 °F - 21.4 °F 94% 30.48 in 10.0 mi Calm Calm - N/A   Clear
3:55 AM 24.4 °F - 22.5 °F 92% 30.48 in 10.0 mi Calm Calm - N/A   Clear
4:15 AM 21.0 °F - 19.8 °F 95% 30.48 in 10.0 mi Calm Calm - N/A   Clear
4:35 AM 21.0 °F - 19.9 °F 96% 30.48 in 10.0 mi Calm Calm - N/A   Clear
4:55 AM 21.0 °F - 19.9 °F 96% 30.49 in 10.0 mi Calm Calm - N/A   Clear
5:15 AM 20.5 °F - 19.4 °F 96% 30.49 in 10.0 mi Calm Calm - N/A   Clear
5:35 AM 20.3 °F - 19.4 °F 96% 30.50 in 10.0 mi Calm Calm - N/A   Clear
5:55 AM 19.8 °F 14.7 °F 18.5 °F 95% 30.51 in 10.0 mi WNW 3.5 mph - N/A   Clear
6:15 AM 19.8 °F - 18.5 °F 95% 30.51 in 10.0 mi Calm Calm - N/A   Clear
6:35 AM 19.8 °F - 18.5 °F 95% 30.52 in 10.0 mi Calm Calm - N/A   Clear
6:55 AM 20.5 °F - 19.2 °F 95% 30.53 in 10.0 mi Calm Calm - N/A   Clear
7:15 AM 19.9 °F - 18.9 °F 96% 30.53 in 10.0 mi Calm Calm - N/A   Clear
7:35 AM 19.6 °F - 18.5 °F 96% 30.53 in 10.0 mi Calm Calm - N/A   Clear
7:55 AM 21.4 °F - 20.1 °F 95% 30.53 in 10.0 mi Calm Calm - N/A   Clear
8:15 AM 25.7 °F - 24.3 °F 94% 30.54 in 10.0 mi Calm Calm - N/A   Clear
8:35 AM 28.0 °F - 24.8 °F 88% 30.55 in 10.0 mi Calm Calm - N/A   Clear
8:55 AM 29.8 °F - 25.5 °F 84% 30.56 in 10.0 mi Calm Calm - N/A   Clear
9:15 AM 32.0 °F - 27.0 °F 82% 30.56 in 10.0 mi Calm Calm - N/A   Clear
9:35 AM 33.6 °F - 26.6 °F 75% 30.56 in 10.0 mi Calm Calm - N/A   Clear
9:55 AM 36.0 °F - 26.8 °F 69% 30.57 in 10.0 mi Calm Calm - N/A   Clear
10:15 AM 38.3 °F - 26.4 °F 62% 30.57 in 10.0 mi Calm Calm - N/A   Clear
10:35 AM 41.7 °F - 23.5 °F 49% 30.57 in 10.0 mi Calm Calm - N/A   Clear
10:55 AM 43.0 °F - 23.9 °F 47% 30.57 in 10.0 mi Calm Calm - N/A   Clear
11:15 AM 44.8 °F - 22.6 °F 42% 30.56 in 10.0 mi Calm Calm - N/A   Clear
11:35 AM 46.8 °F - 22.1 °F 38% 30.56 in 10.0 mi NW 3.5 mph - N/A   Clear
11:55 AM 47.5 °F - 20.3 °F 34% 30.55 in 10.0 mi NNW 3.5 mph - N/A   Clear
12:15 PM 48.7 °F - 20.7 °F 33% 30.54 in 10.0 mi NW 3.5 mph - N/A   Clear
12:35 PM 50.7 °F - 21.9 °F 32% 30.53 in 10.0 mi NW 4.6 mph - N/A   Clear
12:55 PM 52.7 °F - 20.5 °F 28% 30.53 in 10.0 mi East 3.5 mph - N/A   Clear
1:15 PM 52.9 °F - 18.9 °F 26% 30.52 in 10.0 mi East 4.6 mph - N/A   Clear
1:35 PM 54.1 °F - 20.5 °F 27% 30.52 in 10.0 mi ESE 4.6 mph - N/A   Clear
1:55 PM 54.0 °F - 20.7 °F 27% 30.51 in 10.0 mi ESE 6.9 mph - N/A   Clear
2:15 PM 53.6 °F - 19.8 °F 27% 30.51 in 10.0 mi SSE 3.5 mph - N/A   Clear
2:35 PM 53.8 °F - 19.2 °F 26% 30.51 in 10.0 mi East 4.6 mph - N/A   Clear
2:55 PM 54.0 °F - 19.8 °F 26% 30.51 in 10.0 mi SE 4.6 mph - N/A   Clear
3:15 PM 53.8 °F - 19.6 °F 26% 30.51 in 10.0 mi ESE 5.8 mph - N/A   Clear
3:35 PM 53.6 °F - 20.1 °F 27% 30.50 in 10.0 mi East 6.9 mph - N/A   Clear
3:55 PM 52.7 °F - 20.8 °F 29% 30.52 in 10.0 mi East 5.8 mph - N/A   Clear
4:15 PM 52.0 °F - 20.5 °F 29% 30.53 in 10.0 mi East 5.8 mph - N/A   Clear
4:35 PM 50.7 °F - 21.2 °F 31% 30.53 in 10.0 mi ESE 4.6 mph - N/A   Clear
4:55 PM 49.1 °F - 21.6 °F 34% 30.54 in 10.0 mi ESE 4.6 mph - N/A   Clear
5:15 PM 46.4 °F 44.3 °F 23.0 °F 40% 30.54 in 10.0 mi East 4.6 mph - N/A   Clear
5:35 PM 41.4 °F 39.4 °F 26.8 °F 56% 30.55 in 10.0 mi East 3.5 mph - N/A   Clear
5:55 PM 36.5 °F 33.9 °F 28.2 °F 72% 30.56 in 10.0 mi East 3.5 mph - N/A   Clear
6:15 PM 39.7 °F 36.5 °F 25.7 °F 57% 30.56 in 10.0 mi ENE 4.6 mph - N/A   Clear
6:35 PM 41.4 °F 39.4 °F 24.8 °F 52% 30.57 in 10.0 mi ENE 3.5 mph - N/A   Clear
6:55 PM 36.0 °F 33.3 °F 25.2 °F 65% 30.58 in 10.0 mi ENE 3.5 mph - N/A   Clear
7:15 PM 34.2 °F 31.2 °F 25.0 °F 69% 30.58 in 10.0 mi ENE 3.5 mph - N/A   Clear
7:35 PM 36.7 °F 34.1 °F 24.8 °F 62% 30.59 in 10.0 mi ENE 3.5 mph - N/A   Clear
7:55 PM 36.7 °F 34.1 °F 24.6 °F 62% 30.59 in 10.0 mi ENE 3.5 mph - N/A   Clear
8:15 PM 32.7 °F 29.6 °F 24.8 °F 73% 30.60 in 10.0 mi NE 3.5 mph - N/A   Clear
8:35 PM 35.8 °F 31.9 °F 24.3 °F 63% 30.60 in 10.0 mi ENE 4.6 mph - N/A   Clear
8:55 PM 36.5 °F 32.7 °F 23.7 °F 60% 30.61 in 10.0 mi NE 4.6 mph - N/A   Clear
9:15 PM 36.0 °F 33.3 °F 23.5 °F 61% 30.61 in 10.0 mi NE 3.5 mph - N/A   Clear
9:35 PM 31.8 °F 28.5 °F 25.2 °F 76% 30.62 in 10.0 mi North 3.5 mph - N/A   Clear
9:55 PM 29.1 °F - 25.3 °F 86% 30.62 in 10.0 mi Calm Calm - N/A   Clear
10:15 PM 28.8 °F - 25.5 °F 88% 30.63 in 10.0 mi Calm Calm - N/A   Clear
10:35 PM 28.0 °F 24.2 °F 25.2 °F 89% 30.64 in 10.0 mi NNE 3.5 mph - N/A   Clear
10:55 PM 29.5 °F 24.5 °F 26.6 °F 89% 30.64 in 10.0 mi North 4.6 mph - N/A   Clear
11:15 PM 32.0 °F 27.5 °F 26.2 °F 79% 30.64 in 10.0 mi North 4.6 mph - N/A   Clear
11:35 PM 32.0 °F 27.5 °F 25.7 °F 78% 30.64 in 10.0 mi North 4.6 mph - N/A   Clear
11:55 PM 32.0 °F 28.7 °F 25.5 °F 77% 30.64 in 10.0 mi North 3.5 mph - N/A   Clear